Regional Weather Roundup
Issued by NWS

Home | Current Version | Previous Version | Text Only | Print | Product List | Glossary Off
Versions: 1 2 3 4 5 6 7 8 9 10 11 12 13 14 15 16 17 18 19 20 21 22 23 24 25

000
ASUS45 KCYS 221110
RWRWY

WYOMING REGIONAL WEATHER ROUNDUP
NATIONAL WEATHER SERVICE CHEYENNE WY
500 AM MDT WED MAR 22 2017

NOTE:  "FAIR" INDICATES FEW OR NO CLOUDS BELOW 12,000 FEET
WITH NO SIGNIFICANT WEATHER AND/OR OBSTRUCTIONS TO VISIBILITY.

WYZ001-221200-
YELLOWSTONE NATIONAL PARK

CITY           SKY/WX    TMP DP  RH WIND       PRES   REMARKS
LK YELLOWSTONE   N/A     32  32 100 CALM      29.97S
W YELLOWSTONE  NOT AVBL

$$
WYZ002>013-054>058-071-098>099-221200-
NORTHERN WYOMING

CITY           SKY/WX    TMP DP  RH WIND       PRES   REMARKS
JACKSON        CLOUDY    37  37 100 SW5       29.97R WCI  34
CODY           MOCLDY    36  33  89 CALM      29.82F
GREYBULL       MOCLDY    37  35  92 SE3       29.81S
WORLAND        FAIR      38  36  92 VRB5      29.79F WCI  34
SHERIDAN       FOG       35  33  92 VRB5      29.79F VSB 1/4 WCI  31
BUFFALO        FAIR      37  33  85 SE9       29.79F WCI  30
GILLETTE       FAIR      33  30  88 S23G31    29.85F WCI  21
HULETT         FAIR      43  32  65 SW7       29.86F
NEWCASTLE      FAIR      36  28  75 SE17G25   29.97F WCI  25

$$
WYZ014>020-022>026-101>103-221200-
CENTRAL WYOMING

CITY           SKY/WX    TMP DP  RH WIND       PRES   REMARKS
BIG PINEY      FAIR      33  31  92 CALM      29.96F
PINEDALE       FAIR      34  32  93 SE3       29.97F
DUBOIS         LGT RAIN  37  34  87 W9        29.90S WCI  31
LANDER         FAIR      40  34  79 W12       29.85F WCI  33
RIVERTON       FAIR      35  33  92 NW9       29.86F WCI  28
CASPER         FAIR      34  32  92 E5        29.88F WCI  30
DOUGLAS        FAIR      35  29  78 SE25G32   29.93F WCI  23

$$
WYZ021-027>030-104>119-221200-
SOUTHERN WYOMING

CITY           SKY/WX    TMP DP  RH WIND       PRES   REMARKS
EVANSTON       FAIR      42  34  73 CALM      29.98F
KEMMERER         N/A     37  34  87 W9        29.99F WCI  31
FORT BRIDGER   FAIR      40  38  94 W3        30.01S
ROCK SPRINGS   FAIR      44  29  55 W5        29.98F
DIXON            N/A     54  25  32 S7        30.02S
RAWLINS        FAIR      49  24  37 SW13G20   29.96F
SARATOGA       FAIR      52  25  35 S12G22    30.00F
LARAMIE        FAIR      32  27  81 SE13      30.00F WCI  22
CHEYENNE       FAIR      31  26  82 S9        30.05F WCI  23
TORRINGTON     FAIR      33  29  85 E16       30.03F WCI  23
PINE BLUFFS    FAIR      34  25  69 S22G28    30.07F WCI  22

$$




USA.gov is the U.S. government's official web portal to all federal, state and local government web resources and services.